User: anonymous   Login
Location: Young's Pond
(41.2695°N, 72.7766°W)
Time: 04:11:25
(UTC-04:00)
Language:

CZ-4B R/B - Orbit

View from above orbital plane
View from above orbital plane
View from above satellite
View from above satellite

Ground track
Ground track

The orbit data is extracted from the following two-line orbital elements,

1 29093U 06015B   17081.88677192 +.00004456 +00000-0 +10954-3 0  9991
2 29093 097.4870 190.8105 0063551 267.8606 091.5361 15.39117841604251
Epoch (UTC): 22 March 2017 21:16:57
Eccentricity: 0.0063551
inclination: 97.4870°
perigee height: 405 km
apogee height: 492 km
right ascension of ascending node: 190.8105°
argument of perigee: 267.8606°
revolutions per day: 15.39117841
mean anomaly at epoch: 91.5361°
orbit number at epoch: 60425

The dashed part of the orbit path shows where the satellite is in the earth's shadow,  

DLR